Weather observations for the past three days for
San Diego, Miramar MCAS/Mitscher Field Airport
Metric (Imperial)
Date Time (pdt) Wind (kph) Vis. (km) Weather Sky Cond. Temperature (ºC) Relative Humidity Wind Chill (°C) Heat Index (°C) Pressure Precipitation (cm)
Air Dwpt 6 hour altimeter (cm) sea level (mb) 1 hr 3 hr 6 hr
Max. Min.
09 17:55 W 15 16.09 Fair CLR 20 13.3 65% 75.92 1011.7
09 16:55 Calm 16.09 Fair CLR 22.2 12.8 24.4 21.7 55% 75.9 1011.3
09 15:55 SW 13 16.09 Fair CLR 23.3 12.8 52% 75.92 1011.5
09 14:55 Vrbl 11 16.09 Fair CLR 21.7 13.3 59% 75.95 1012.0
09 13:55 W 17 16.09 Fair CLR 22.2 12.8 55% 76 1012.5
09 12:55 W 15 16.09 Fair CLR 22.8 13.3 55% 76 1012.5
09 11:55 W 9 16.09 Fair CLR 23.3 13.3 54% 76 1012.5
09 10:55 W 9 16.09 Fair CLR 22.2 13.9 22.2 16.1 59% 76.02 1013.0
09 09:55 NW 9 16.09 Fair CLR 20.6 13.3 63% 76.02 1013.0
09 08:55 Calm 16.09 Overcast OVC013 17.8 13.3 75% 76.05 1013.3
09 07:55 S 6 14.48 Overcast OVC011 17.2 13.9 81% 76.05 1013.2
09 06:55 Calm 12.87 Overcast OVC009 16.1 13.9 87% 76.02 1013.1
09 05:55 Calm 14.48 Overcast OVC008 16.1 13.9 87% 76.02 1012.9
09 04:55 SW 6 14.48 Overcast OVC008 16.1 13.9 16.7 16.1 87% 76 1012.7
09 03:55 Calm 12.87 Overcast OVC008 16.1 14.4 90% 76.02 1012.9
09 02:55 E 6 14.48 Overcast OVC008 16.1 14.4 90% 76.02 1013.0
09 01:55 SE 6 14.48 Overcast OVC008 16.1 14.4 90% 76.05 1013.3
09 00:55 Calm 14.48 Overcast OVC008 16.1 14.4 90% 76.07 1013.7
08 23:55 Calm 16.09 Overcast OVC008 16.1 14.4 90% 76.1 1014.2
08 22:55 SW 6 16.09 Overcast OVC008 16.7 14.4 21.1 16.1 86% 76.12 1014.3
08 21:55 Calm 16.09 Overcast OVC008 16.1 13.9 87% 76.12 1014.5
08 20:55 NW 7 16.09 Overcast OVC009 16.1 14.4 90% 76.1 1014.1
08 19:55 W 9 16.09 Fair CLR 16.7 13.9 84% 76.07 1013.7
08 18:55 W 13 16.09 Fair CLR 18.3 14.4 78% 76.02 1013.1
08 17:55 W 11 16.09 Fair CLR 19.4 14.4 73% 76.02 1013.2
08 16:55 W 17 16.09 Fair CLR 20.6 14.4 24.4 20 68% 76.05 1013.3
08 15:55 W 13 16.09 Fair CLR 21.7 13.9 61% 76.07 1013.6
08 14:55 SW 15 G 31 16.09 Fair CLR 21.7 13.9 61% 76.1 1014.0
08 13:55 W 11 16.09 Fair CLR 23.9 14.4 55% 25 76.1 1013.9
08 12:55 W 13 16.09 Fair CLR 23.9 14.4 55% 25 76.12 1014.2
08 11:55 Vrbl 6 16.09 A Few Clouds FEW020 22.2 13.3 57% 76.17 1014.9
08 10:55 NW 7 16.09 A Few Clouds FEW017 20 13.3 20.6 15.6 65% 76.23 1015.6
08 09:55 NW 7 12.87 Overcast OVC013 18.3 13.9 76% 76.23 1015.8
08 08:55 Calm 11.27 Overcast OVC011 16.7 13.3 80% 76.25 1016.2
08 07:55 Calm 11.27 Overcast OVC010 16.1 13.3 84% 76.25 1016.1
08 06:55 Calm 11.27 Overcast OVC010 15.6 13.3 86% 76.23 1015.7
08 05:55 Calm 11.27 Overcast OVC009 15.6 13.3 86% 76.2 1015.3
08 04:55 SE 6 11.27 Overcast OVC009 15.6 13.3 16.1 15.6 86% 76.17 1015.1
08 03:55 SE 7 14.48 Overcast OVC009 15.6 13.9 90% 76.17 1015.1
08 02:55 Calm 16.09 Overcast OVC009 16.1 13.9 87% 76.2 1015.4
08 01:55 E 6 14.48 Overcast OVC010 16.1 13.3 84% 76.2 1015.4
08 00:55 E 6 16.09 Overcast OVC011 16.1 13.9 87% 76.23 1015.8
07 23:55 Calm 16.09 Overcast OVC010 16.1 13.3 84% 76.25 1016.1
07 22:55 Calm 16.09 Overcast OVC010 16.1 13.3 20.6 13.9 84% 76.28 1016.3
07 20:55 SW 6 16.09 Fair CLR 13.9 12.8 93% 76.2 1015.5
07 19:55 W 9 16.09 Fair CLR 16.1 13.3 84% 76.15 1014.8
07 18:55 W 9 16.09 Fair CLR 18.3 13.3 73% 76.1 1014.2
07 17:55 W 11 16.09 A Few Clouds FEW050 19.4 13.3 68% 76.1 1014.2
07 16:55 W 11 16.09 Fair CLR 20.6 13.3 22.2 20 63% 76.1 1014.2
07 13:55 W 17 16.09 A Few Clouds FEW050 21.7 13.3 59% 76.17 1015.0
07 12:55 SW 13 G 30 16.09 Fair CLR 21.1 13.3 61% 76.17 1015.1
07 11:55 SW 15 G 28 16.09 Fair CLR 21.7 13.3 59% 76.23 1015.6
07 10:55 Vrbl 6 16.09 A Few Clouds FEW015 20.6 13.3 20.6 10.6 63% 76.25 1015.9
07 09:55 Calm 16.09 A Few Clouds FEW015 18.3 13.3 73% 76.25 1016.2
07 08:55 Vrbl 6 16.09 Mostly Cloudy BKN020 16.7 13.3 80% 76.28 1016.6
07 07:55 Calm 16.09 Mostly Cloudy BKN035 15 12.8 87% 76.28 1016.4
07 06:55 NE 6 16.09 Mostly Cloudy BKN035 13.9 12.2 90% 76.25 1016.0
07 05:55 N 6 16.09 Mostly Cloudy BKN010 11.7 10.6 93% 76.23 1015.8
07 04:55 NE 7 16.09 A Few Clouds FEW010 10.6 10.6 15 10.6 100% 76.2 1015.6
07 03:55 NE 6 16.09 Fair CLR 10.6 10 96% 76.23 1015.7
07 02:55 NE 6 16.09 Partly Cloudy SCT050 11.1 10.6 97% 76.25 1016.1
07 01:55 Calm 16.09 Mostly Cloudy BKN011 11.1 10.6 97% 76.28 1016.5
07 00:55 E 6 16.09 Fair CLR 11.1 10 93% 76.3 1016.9
06 23:55 NE 6 16.09 Fair CLR 12.8 11.7 93% 76.33 1017.1
06 22:55 NW 7 16.09 Fair CLR 15 13.3 20 14.4 90% 76.33 1017.2
06 21:55 NW 6 16.09 Fair CLR 15 13.3 90% 76.33 1017.1
06 20:55 W 6 16.09 Fair CLR 15 12.8 87% 76.3 1016.9
06 18:55 W 15 16.09 Fair CLR 17.8 12.8 73% 76.25 1016.1
Date Time (pdt) Wind (kph) Vis. (km) Weather Sky Cond. Air Dwpt Max. Min. Relative Humidity Wind Chill (°C) Heat Index (°C) altimeter (cm) sea level (mb) 1 hr 3 hr 6 hr
6 hour
Temperature (ºC) Pressure Precipitation (cm)